Regional Weather Roundup
Issued by NWS

Home | Current Version | Previous Version | Text Only | Print | Product List | Glossary On
Versions: 1 2 3 4 5 6 7 8 9 10 11 12 13 14 15 16 17 18 19 20 21 22 23 24 25 26 27 28 29 30 31 32 33 34 35 36 37 38 39 40 41 42 43 44 45 46 47 48 49 50
000
ASUS43 KMKX 311600
RWRWI

WISCONSIN REGIONAL WEATHER ROUNDUP
NATIONAL WEATHER SERVICE MILWAUKEE/SULLIVAN WI
1100 AM CDT TUE MAY 31 2016

NOTE: "FAIR" INDICATES FEW OR NO CLOUDS BELOW 12,000 FEET WITH NO
SIGNIFICANT WEATHER AND/OR OBSTRUCTIONS TO VISIBILITY.

WIZ001-002-006>008-014>016-023>028-311700-
NORTHWEST WISCONSIN

CITY           SKY/WX    TMP DP  RH WIND       PRES   REMARKS
SUPERIOR ARPT  DRIZZLE   42  40  93 E21G29    29.98S
ASHLAND        CLOUDY    52  46  80 CALM      29.99R
HAYWARD        LGT RAIN  62  58  86 SE8       29.94F
SIREN          CLOUDY    63  60  91 SE10      29.89S
CUMBERLAND     LGT RAIN  61  59  94 SE9       29.91F
RICE LAKE      CLOUDY    63  60  90 E9        29.93F
CHETEK         CLOUDY    65  62  90 E7        29.92F
LADYSMITH      CLOUDY    68  56  66 S8        29.99R
EAU CLAIRE     NOT AVBL
MENOMONIE      PTSUNNY   69  68  98 SE5       29.92S
NEW RICHMOND   CLOUDY    65  62  90 SE7       29.90S
OSCEOLA        PTSUNNY   67  67  99 S10       29.91S
$$

WIZ003>005-009-010-017-018-311700-
NORTH CENTRAL WISCONSIN

CITY           SKY/WX    TMP DP  RH WIND       PRES   REMARKS
MANITOWISH WTR NOT AVBL
ARBOR VITAE    CLOUDY    59  50  70 SE14      30.02F
WOODRUFF       CLOUDY    59  50  70 SE14      30.02F
RHINELANDER    CLOUDY    61  49  64 E14       30.04S
EAGLE RIVER      N/A     56  44  64 SE6       30.05S
LAND O LAKES   CLOUDY    55  45  67 SE8       30.07S
PHILLIPS       CLOUDY    62  53  72 SE12      29.99S
TOMAHAWK       CLOUDY    61  51  70 E6        30.03S
MEDFORD        CLOUDY    64  56  75 SE12      29.99S
MERRILL        CLOUDY    61  52  72 SE9       30.02F
$$

WIZ029-030-035-036-043>047-311700-
CENTRAL WISCONSIN

CITY           SKY/WX    TMP DP  RH WIND       PRES   REMARKS
WAUSAU         PTSUNNY   68  53  58 E14       29.99F
MOSINEE        SUNNY     66  55  68 E12       30.01F
MARSHFIELD     CLOUDY    71  58  63 SE15G21   29.97F
STEVENS POINT  MOSUNNY   65  54  68 E13       30.01F
WAUPACA        SUNNY     70  55  59 E10       30.03S
WAUTOMA        MOSUNNY  N/A N/A N/A E9        30.01S
WISC RAPIDS    MOSUNNY   75  55  49 SE13G18   29.99S
CAMP DOUGLAS   NOT AVBL
$$

WIZ011>013-019>022-031-037>040-048>050-311700-
NORTHEAST WISCONSIN

CITY           SKY/WX    TMP DP  RH WIND       PRES   REMARKS
ANTIGO         MOSUNNY   61  51  70 SE10      30.05S
SHAWANO        SUNNY     65  52  64 E12       30.06F
OCONTO         CLOUDY    59  49  68 E9        30.08R
STURGEON BAY   NOT AVBL
GREEN BAY      SUNNY     66  54  65 E12       30.05S
MANITOWOC      NOT AVBL
APPLETON       PTSUNNY   66  52  59 E7        30.02F
CLINTONVILLE   SUNNY     64  52  63 E12       30.04S
OSHKOSH        SUNNY     67  57  70 E9        30.02S
$$

WIZ032>034-041-042-053>061-311700-
SOUTHWEST WISCONSIN

CITY           SKY/WX    TMP DP  RH WIND       PRES   REMARKS
LA CROSSE      CLOUDY    77  62  59 S13       29.91F
SPARTA         CLOUDY    73  61  66 SE6       29.95S
VIROQUA        CLOUDY    73  63  71 SE12      29.95F
BOSCOBEL       NOT AVBL
PRAIRIE DU CHI SUNNY     72  63  72 CALM      29.92F
PLATTEVILLE    CLOUDY    71  64  79 S9        29.97R
$$

WIZ056-057-062-063-064-067-068-311700-
SOUTH CENTRAL WISCONSIN

CITY           SKY/WX    TMP DP  RH WIND       PRES   REMARKS
REEDSBURG      MOSUNNY   73  59  59 CALM      29.95F
BARABOO/DELLS  CLOUDY    75  48  39 SE13      29.97S
LONE ROCK      NOT AVBL
MINERAL POINT  PTSUNNY   72  59  64 SE14      29.95F
MADISON        PTSUNNY   76  51  41 SE15      29.96S
MIDDLETON      MOSUNNY   79  51  36 SE13G22   29.97F
WATERTOWN      SUNNY     76  52  43 SE13G22   29.99S
MONROE         PTSUNNY   73  55  53 S17       29.98R
JANESVILLE     MOSUNNY   81  50  34 SE16      29.95F HX  80
$$

WIZ051-052-058>065-066-070>072-311700-
SOUTHEAST WISCONSIN

CITY           SKY/WX    TMP DP  RH WIND       PRES   REMARKS
MILWAUKEE      MOSUNNY   64  56  75 NE8       30.03S
WAUKESHA       MOSUNNY   70  52  52 E9        30.03S
MILWAUKEE/TIMM SUNNY     68  52  56 E9        30.03
RACINE         SUNNY     71  55  56 NE8       30.04S
BURLINGTON     SUNNY     75  48  37 SE10G21   30.00S
KENOSHA        SUNNY     71  55  56 E13       30.01F
FOND DU LAC    SUNNY     74  57  55 SE12      30.02R
SHEBOYGAN      SUNNY     62  54  74 E9        30.05R
WEST BEND      SUNNY     68  55  64 E10       30.03S
JUNEAU         SUNNY     73  54  51 E14G21    30.01F
$$

LSZ147-162-311700-
LAKE SUPERIOR

STATION/POSITION TIME  TEMP    WIND        PRES    WAVE
                       AIR SEA DIR/SP/G            HT/PER
                 (UTC) (F)     (DEG/KT/KT) (MB)    (FT/S)
W MID LAKE BUOY  1450   41 38   80/ 14/ 16 1018.5R   4/ 5
DEVILS ISLAND    1500   42      70/ 23/ 26 1017.4S
SAXON HARBOR     1540   57      50/  7/ 10 1014.6S
$$

LMZ867-665-643>646-311700-
LAKE MICHIGAN

STATION/POSITION TIME  TEMP    WIND        PRES    WAVE
                       AIR SEA DIR/SP/G            HT/PER
                 (UTC) (F)     (DEG/KT/KT) (MB)    (FT/S)
CHAMBERS ISLAND  1500   54      60/  9/ 15 1019.0R
N MID LAKE BUOY  1450   47 47   80/ 10/ 12 1018.8F   1/ 3
NORTHPORT PIER   1500   51      60/  9/ 10 1019.3
SISTER BAY       1420   55     140/ 12/ 19   N/A
ALGOMA LAKESHORE 1517           50/ 16/ 20   N/A
KEWAUNEE LAKESHO 1500   52      20/  7/ 12 1017.3F
SHEBOYGAN LAKESH 1500   50     350/  9/  9 1017.9F
PORT WASHINGTON  1540   55      30/  6/  8 1017.9F
S MID LAKE BUOY  1450   57 54   80/  8/  8 1016.3F   0
KENOSHA   LAKESH 1500   57      10/  6/  6 1016.6F
$$

TC  - TEMPERATURE IN CELSIUS
VSB - VISIBILITY IN STATUTE MILES
WCI - WIND CHILL INDEX
HX  - HEAT INDEX





USA.gov is the U.S. government's official web portal to all federal, state and local government web resources and services.